Location: Fontevrault
(47.1823°N, 0.0493°E)
Time: 14:42:37
(UTC+00:00)

Lacrosse 5 - Pass Details

Date: 31 October 2021
Orbit: 714 x 724 km, 57.0° (Epoch: 28 August)

Event Time Altitude Azimuth Distance (km) Brightness Sun altitude
Rises 17:56:42 0° 199° (SSW) 3,124 5.5 -12.7°
Reaches altitude 10° 17:59:17 10° 189° (S) 2,207 4.6 -13.1°
Maximum altitude 18:03:44 31° 128° (SE) 1,244 2.7 -13.9°
Enters shadow 18:06:01 22° 85° (E) 1,557 3.0 -14.3°
